Regional Weather Roundup
Issued by NWS Sioux Falls, SD

Home | Current Version | Previous Version | Text Only | Print | Product List | Glossary On
Versions: 1 2 3 4 5 6 7 8 9 10 11 12 13 14 15 16 17 18 19 20 21 22 23 24 25 26 27 28 29 30 31 32 33 34 35 36 37 38 39 40 41 42 43 44 45 46 47 48 49 50
000
ASUS43 KFSD 172110
RWRFSD

WEATHER ROUNDUP FOR SE SOUTH DAKOTA/SW MINNESOTA/NW IOWA
NATIONAL WEATHER SERVICE SIOUX FALLS SD
400 PM CDT THU APR 17 2014

NOTE: "FAIR" INDICATES FEW OR NO CLOUDS BELOW 12,000 FEET WITH NO
SIGNIFICANT WEATHER AND OR OBSTRUCTIONS TO VISIBILITY.


SDZ038>040-050-052>070-172200-
SOUTHEAST SOUTH DAKOTA

CITY           SKY/WX    TMP DP  RH WIND       PRES   REMARKS
CHAMBERLAIN      N/A     47  18  31 S16G22    30.24F
HURON          MOSUNNY   44  17  33 CALM      30.28F
MADISON        FAIR      39  19  45 SE6       30.27F
MITCHELL       MOSUNNY   48  15  26 CALM      30.28F
SIOUX FALLS    PTSUNNY   43  23  45 E6        30.28F
WINNER         LGT RAIN  40  31  70 SE12      30.22F
YANKTON        SUNNY     48  23  37 E6        30.28F
$$

MNZ071-072-080-081-089-090-097-098-172200-
SOUTHWEST MINNESOTA

CITY           SKY/WX    TMP DP  RH WIND       PRES   REMARKS
FAIRMONT       PTSUNNY   39  28  65 N9        30.31F
JACKSON        PTSUNNY   43  30  61 N7        30.28F
LUVERNE        MOSUNNY   43  25  49 N5        30.29F
MARSHALL       MOSUNNY   36  19  51 N7        30.32S
MONTEVIDEO     SUNNY     43  27  52 N8        30.32S
PIPESTONE      MOSUNNY   37  16  41 NE6       30.27F
REDWOOD FALLS  SUNNY     37  27  67 W12       30.31S
TRACY          MOSUNNY   37  26  65 N7        30.30F
WINDOM         MOSUNNY   43  30  61 NW9       30.29F
WORTHINGTON    SUNNY     39  25  56 N7        30.30S
$$

IAZ001>003-012>014-020>022-031-032-NEZ013-014-SDZ071-172200-
NORTHWEST IOWA

CITY           SKY/WX    TMP DP  RH WIND       PRES   REMARKS
CHEROKEE       SUNNY     51  27  39 N5        30.27F
DENISON        SUNNY     50  25  37 N6        30.25F
ESTHERVILLE    PTSUNNY   43  30  60 N7        30.27F
LE MARS        SUNNY     48  25  40 N5        30.28F
ORANGE CITY    SUNNY     48  25  40 CALM      30.27F
SHELDON        SUNNY     46  27  46 NE5G13    30.26F
SIOUX CITY     SUNNY     50  25  37 CALM      30.27F
SPENCER        SUNNY     45  28  51 W5        30.28F
STORM LAKE     SUNNY     46  27  46 NW8       30.27F
$$

ABBREVIATIONS USED IN REMARKS
   TC - TEMPERATURE IN CELSIUS
  WCI - WIND CHILL INDEX
   HX - HEAT INDEX
  VSB - VISIBILITY




USA.gov is the U.S. government's official web portal to all federal, state and local government web resources and services.